Погода в Фоминском

Россия / Вологодская область     58°58′58″N   39°03′25″E
темп.,
°C
ветер,
м/с
пор.,
м/с
влажн.,
%
обл.,
%
осадки,
мм/ч
давл.,
гПа
погр.,
м
25 июля, вс
вс2500:00+13зюз2272100 0.0 101555
03:00+13зсз1163100 0.0 101610
06:00+11зсз266917 0.0 1017165
09:00+16зсз34470 0.0 1018777
12:00+20зсз353497 0.0 10182437
15:00+20з4537100 0.0 10182204
18:00+18зюз2553100 0.0 1019155
21:00+15юз266164 0.0 1019122
26 июля, пн
пн2600:00+16юз2864100 0.0 1020195
03:00+13з27706 0.0 1020149
06:00+14з2873100 0.0 1021229
09:00+16зюз3865100 0.0 1020294
12:00+18з365873 0.0 1021382
15:00+24з463855 0.0 10192317
18:00+20з225543 0.0 101952
21:00+14з369485 0.6 1020116
27 июля, вт
вт2700:00+13сз36954 0.1 102198
03:00+13сз229693 0.1 102140
06:00+15всв119268 0.0 102156
09:00+21юз116616 0.0 1021491
12:00+25зсз244545 0.0 10191879
15:00+23сз1355100 0.0 1018515
18:00+23ссз2358100 0.0 1018220
21:00+14ююз11865 1.8 101811
28 июля, ср
ср2800:00+12ссв118780 0.0 101811
03:00+12зюз11902 0.0 101810
06:00+15сз008721 0.0 101626
09:00+22юз11595 0.0 1015541
12:00+26зюз23415 0.0 10131660
15:00+27зюз34351 0.0 10112438
18:00+26юз234315 0.0 1009881
21:00+20юз386698 0.0 1008203
29 июля, чт
чт2900:00+16зюз389795 0.5 1008183
03:00+15юз239879 0.6 100754
06:00+16ююз139384 0.0 1006125
09:00+21ю3468100 0.0 1005677
12:00+22ю3465100 0.3 10041201
15:00+18юз3785100 1.4 1004488
18:00+18ююз369199 0.5 1003441
21:00+16юз279947 1.0 1002268